Tracking 28514 objects as of 23-Feb-2024
HD Live streaming from Space Station
objects crossing your sky now

STARLINK-6038

Track STARLINK-6038 now!
10-day predictions
STARLINK-6038 is classified as:


NORAD ID: 56317
Int'l Code: 2023-058A
Perigee: 568.6 km
Apogee: 571.7 km
Inclination: 97.7 °
Period: 95.9 minutes
Semi major axis: 6941 km
RCS: Unknown
Launch date: April 27, 2023
Source: United States (US)
Launch site: AIR FORCE WESTERN TEST RANGE (AFWTR)
Your satellite tracking list
Your tracking list is empty




NASA's NSSDC Master Catalog

Two Line Element Set (TLE):
1 56317U 23058A   24053.90369166  .00000062  00000-0  94092-5 0  9991
2 56317  97.6563  56.2997 0002206 144.4423 215.6949 15.01258230 45888
Source of the keplerian elements: AFSPC